Location: Tel Aviv
(32.0670°N, 34.7670°E)
Time: 22:12:07
(UTC+02:00)

CUTE-I - Pass Details

Date: 18 December 2025
Orbit: 805 x 817 km, 98.7° (Epoch: 21 January)

Event Time Altitude Azimuth Distance (km) Brightness Sun altitude
Rises 05:55:28 0° 13° (NNE) 3,345 ? -8.6°
Reaches altitude 10° 05:57:49 10° 14° (NNE) 2,411 ? -8.2°
Maximum altitude 06:03:10 84° 103° (ESE) 826 ? -7.1°
Drops below altitude 10° 06:08:29 10° 192° (SSW) 2,400 ? -6.1°
Sets 06:10:49 0° 192° (SSW) 3,329 ? -5.6°
